TimeCDT,TemperatureF,Dew PointF,Humidity,Sea Level PressureIn,VisibilityMPH,Wind Direction,Wind SpeedMPH,Gust SpeedMPH,PrecipitationIn,Events,Conditions,WindDirDegrees,DateUTC
12:35 AM,69.8,69.8,100,29.99,10.0,Calm,Calm,-,N/A,,Clear,0,2013-07-11 05:35:00
12:55 AM,69.8,69.8,100,29.99,9.0,Calm,Calm,-,N/A,,Unknown,0,2013-07-11 05:55:00
1:15 AM,69.8,69.8,100,29.99,10.0,Calm,Calm,-,N/A,,Mostly Cloudy,0,2013-07-11 06:15:00
1:35 AM,69.8,69.8,100,29.99,8.0,Calm,Calm,-,N/A,,Unknown,0,2013-07-11 06:35:00
1:55 AM,69.8,69.8,100,29.98,8.0,Calm,Calm,-,N/A,,Mostly Cloudy,0,2013-07-11 06:55:00
2:15 AM,69.8,69.8,100,29.98,9.0,Calm,Calm,-,N/A,,Partly Cloudy,0,2013-07-11 07:15:00
2:35 AM,69.8,69.8,100,29.98,9.0,Calm,Calm,-,N/A,,Clear,0,2013-07-11 07:35:00
2:55 AM,69.8,68.0,94,29.98,9.0,Calm,Calm,-,N/A,,Clear,0,2013-07-11 07:55:00
3:15 AM,69.8,68.0,94,29.97,2.0,Calm,Calm,-,N/A,,Clear,0,2013-07-11 08:15:00
3:35 AM,68.0,68.0,100,29.98,3.0,Calm,Calm,-,N/A,,Clear,0,2013-07-11 08:35:00
3:55 AM,68.0,66.2,94,29.98,0.5,Calm,Calm,-,N/A,,Unknown,0,2013-07-11 08:55:00
4:15 AM,66.2,66.2,100,29.97,0.5,Calm,Calm,-,N/A,,Mostly Cloudy,0,2013-07-11 09:15:00
4:35 AM,68.0,66.2,94,29.97,4.0,Calm,Calm,-,N/A,,Unknown,0,2013-07-11 09:35:00
4:55 AM,66.2,66.2,100,29.97,0.8,Calm,Calm,-,N/A,,Mostly Cloudy,0,2013-07-11 09:55:00
5:15 AM,66.2,66.2,100,29.98,0.5,Calm,Calm,-,N/A,,Overcast,0,2013-07-11 10:15:00
5:35 AM,66.2,66.2,100,29.98,0.5,Calm,Calm,-,N/A,,Overcast,0,2013-07-11 10:35:00
5:55 AM,66.2,66.2,100,29.98,0.2,Calm,Calm,-,N/A,,Overcast,0,2013-07-11 10:55:00
6:15 AM,66.2,66.2,100,29.99,0.2,Calm,Calm,-,N/A,,Unknown,0,2013-07-11 11:15:00
6:35 AM,68.0,66.2,94,30.00,0.8,Calm,Calm,-,N/A,,Overcast,0,2013-07-11 11:35:00
6:55 AM,69.8,68.0,94,30.00,4.0,Calm,Calm,-,N/A,,Unknown,0,2013-07-11 11:55:00
7:15 AM,69.8,68.0,94,29.99,10.0,Calm,Calm,-,N/A,,Overcast,0,2013-07-11 12:15:00
7:35 AM,69.8,68.0,94,30.00,8.0,Calm,Calm,-,N/A,,Overcast,0,2013-07-11 12:35:00
7:55 AM,69.8,69.8,100,30.00,4.0,Calm,Calm,-,N/A,,Unknown,0,2013-07-11 12:55:00
8:15 AM,69.8,69.8,100,30.00,2.5,Calm,Calm,-,N/A,,Overcast,0,2013-07-11 13:15:00
8:35 AM,71.6,69.8,94,30.01,7.0,Calm,Calm,-,N/A,,Unknown,0,2013-07-11 13:35:00
8:55 AM,71.6,69.8,94,30.01,10.0,East,3.5,-,N/A,,Overcast,90,2013-07-11 13:55:00
9:15 AM,73.4,69.8,88,30.01,10.0,Calm,Calm,-,N/A,,Unknown,0,2013-07-11 14:15:00
9:35 AM,75.2,69.8,83,30.00,10.0,Calm,Calm,-,N/A,,Overcast,0,2013-07-11 14:35:00
9:55 AM,75.2,69.8,83,30.00,10.0,Calm,Calm,-,N/A,,Overcast,0,2013-07-11 14:55:00
10:15 AM,75.2,69.8,83,30.00,10.0,Calm,Calm,-,N/A,,Overcast,0,2013-07-11 15:15:00
10:35 AM,78.8,69.8,74,30.00,10.0,NNW,3.5,-,N/A,,Overcast,340,2013-07-11 15:35:00
10:55 AM,78.8,69.8,74,30.00,10.0,Calm,Calm,-,N/A,,Mostly Cloudy,0,2013-07-11 15:55:00
11:15 AM,78.8,69.8,74,30.00,10.0,Calm,Calm,-,N/A,,Partly Cloudy,0,2013-07-11 16:15:00
11:35 AM,78.8,71.6,78,30.00,10.0,Calm,Calm,-,N/A,,Mostly Cloudy,0,2013-07-11 16:35:00
11:55 AM,80.6,71.6,74,30.00,10.0,NE,5.8,-,N/A,,Mostly Cloudy,40,2013-07-11 16:55:00
12:15 PM,80.6,69.8,70,29.99,10.0,Calm,Calm,-,N/A,,Partly Cloudy,0,2013-07-11 17:15:00
12:35 PM,82.4,69.8,66,29.98,10.0,Calm,Calm,-,N/A,,Clear,0,2013-07-11 17:35:00
12:55 PM,82.4,69.8,66,29.97,10.0,Calm,Calm,-,N/A,,Partly Cloudy,0,2013-07-11 17:55:00
1:15 PM,82.4,71.6,70,29.97,10.0,Variable,4.6,-,N/A,,Partly Cloudy,0,2013-07-11 18:15:00
1:35 PM,82.4,69.8,66,29.97,10.0,Variable,3.5,-,N/A,,Scattered Clouds,0,2013-07-11 18:35:00
1:55 PM,84.2,69.8,62,29.97,10.0,NNW,4.6,-,N/A,,Partly Cloudy,330,2013-07-11 18:55:00
2:15 PM,84.2,69.8,62,29.96,10.0,NNE,3.5,-,N/A,,Clear,20,2013-07-11 19:15:00
2:35 PM,84.2,69.8,62,29.95,10.0,Calm,Calm,-,N/A,,Clear,0,2013-07-11 19:35:00
2:55 PM,87.8,69.8,55,29.95,10.0,Calm,Calm,-,N/A,,Clear,0,2013-07-11 19:55:00
3:15 PM,86.0,69.8,58,29.95,10.0,Variable,4.6,-,N/A,,Clear,0,2013-07-11 20:15:00
3:35 PM,87.8,66.2,49,29.94,10.0,Calm,Calm,-,N/A,,Clear,0,2013-07-11 20:35:00
3:55 PM,86.0,69.8,58,29.94,10.0,NNW,4.6,-,N/A,,Clear,330,2013-07-11 20:55:00
4:15 PM,84.2,71.6,66,29.94,10.0,Calm,Calm,-,N/A,,Clear,0,2013-07-11 21:15:00
4:35 PM,82.4,71.6,70,29.94,10.0,NNW,3.5,-,N/A,,Clear,330,2013-07-11 21:35:00
4:55 PM,80.6,71.6,74,29.93,6.0,Calm,Calm,-,N/A,,Clear,0,2013-07-11 21:55:00
5:15 PM,82.4,71.6,70,29.93,10.0,NNW,5.8,-,N/A,,Scattered Clouds,330,2013-07-11 22:15:00
5:35 PM,82.4,71.6,70,29.93,10.0,Variable,4.6,-,N/A,,Mostly Cloudy,0,2013-07-11 22:35:00
5:55 PM,80.6,71.6,74,29.93,7.0,NNW,3.5,-,N/A,,Scattered Clouds,340,2013-07-11 22:55:00
6:15 PM,82.4,71.6,70,29.93,10.0,NNW,3.5,-,N/A,,Clear,330,2013-07-11 23:15:00
6:35 PM,80.6,71.6,74,29.93,10.0,Calm,Calm,-,N/A,,Clear,0,2013-07-11 23:35:00
6:55 PM,80.6,71.6,74,29.93,10.0,Calm,Calm,-,N/A,,Clear,0,2013-07-11 23:55:00
7:15 PM,78.8,71.6,78,29.93,10.0,Variable,5.8,-,N/A,,Mostly Cloudy,0,2013-07-12 00:15:00
7:35 PM,75.2,69.8,83,29.94,10.0,NW,3.5,-,N/A,,Overcast,320,2013-07-12 00:35:00
7:55 PM,73.4,69.8,88,29.94,10.0,Calm,Calm,-,N/A,,Overcast,0,2013-07-12 00:55:00
8:15 PM,73.4,69.8,88,29.95,10.0,Calm,Calm,-,N/A,,Overcast,0,2013-07-12 01:15:00
8:35 PM,73.4,69.8,88,29.95,10.0,Calm,Calm,-,N/A,,Overcast,0,2013-07-12 01:35:00
8:55 PM,73.4,69.8,88,29.95,10.0,North,3.5,-,N/A,,Overcast,10,2013-07-12 01:55:00
9:15 PM,73.4,69.8,88,29.96,10.0,Calm,Calm,-,N/A,,Mostly Cloudy,0,2013-07-12 02:15:00
9:35 PM,73.4,69.8,88,29.96,10.0,NE,3.5,-,N/A,,Mostly Cloudy,50,2013-07-12 02:35:00
9:55 PM,73.4,69.8,88,29.96,10.0,NE,4.6,-,N/A,,Clear,40,2013-07-12 02:55:00
10:15 PM,73.4,69.8,88,29.97,10.0,NNE,3.5,-,N/A,,Clear,30,2013-07-12 03:15:00
10:35 PM,73.4,69.8,88,29.97,10.0,NNE,3.5,-,N/A,,Clear,20,2013-07-12 03:35:00
10:55 PM,71.6,68.0,88,29.97,10.0,Calm,Calm,-,N/A,,Clear,0,2013-07-12 03:55:00
11:15 PM,71.6,68.0,88,29.97,10.0,Calm,Calm,-,N/A,,Clear,0,2013-07-12 04:15:00
11:35 PM,71.6,66.2,83,29.97,10.0,Calm,Calm,-,N/A,,Clear,0,2013-07-12 04:35:00
11:55 PM,69.8,66.2,88,29.97,10.0,Calm,Calm,-,N/A,,Clear,0,2013-07-12 04:55:00